This is the latest recevied weather packets stored in our database for station/object SP1BMW-13. If no packets are shown the sender has not sent any weather packets the latest 10 day(s).
| Time | Temp. | Humidity | Pressure | Rain* | Wind** | Luminosity | Snow |
|---|---|---|---|---|---|---|---|
| 1778246040 | 14.44° C | 53% | 1019.9 hPa | 0 mm | 0.45 m/s, 324° | 337 W/m² | - |
| 1778245980 | 14.44° C | 51% | 1019.8 hPa | 0 mm | 0 m/s | 340 W/m² | - |
| 1778245923 | 14.44° C | 52% | 1019.7 hPa | 0 mm | 1.34 m/s, 31° | 341 W/m² | - |
| 1778245860 | 13.89° C | 53% | 1019.7 hPa | 0 mm | 0 m/s | 337 W/m² | - |
| 1778245803 | 13.89° C | 54% | 1019.7 hPa | 0 mm | 0.45 m/s, 330° | 340 W/m² | - |
| 1778245740 | 13.89° C | 55% | 1020 hPa | 0 mm | 1.79 m/s, 15° | 364 W/m² | - |
| 1778245680 | 13.89° C | 53% | 1019.9 hPa | 0 mm | 1.34 m/s, 12° | 363 W/m² | - |
| 1778245620 | 13.89° C | 53% | 1019.8 hPa | 0 mm | 0.89 m/s, 339° | 355 W/m² | - |
| 1778245560 | 13.89° C | 54% | 1019.7 hPa | 0 mm | 0.45 m/s, 56° | 343 W/m² | - |
| 1778245500 | 13.89° C | 53% | 1019.9 hPa | 0 mm | 0 m/s | 329 W/m² | - |
| 1778245446 | 13.89° C | 55% | 1019.8 hPa | 0 mm | 0.45 m/s, 40° | 316 W/m² | - |
| 1778245386 | 13.89° C | 54% | 1019.9 hPa | 0 mm | 0.45 m/s, 48° | 302 W/m² | - |
| 1778245320 | 13.89° C | 54% | 1020.1 hPa | 0 mm | 1.79 m/s, 53° | 286 W/m² | - |
| 1778245260 | 13.89° C | 57% | 1020 hPa | 0 mm | 0.45 m/s, 45° | 282 W/m² | - |
| 1778245200 | 13.89° C | 56% | 1020 hPa | 0 mm | 0.89 m/s, 58° | 275 W/m² | - |
| 1778245140 | 13.89° C | 54% | 1019.9 hPa | 0 mm | 0.89 m/s, 66° | 272 W/m² | - |
| 1778245082 | 13.89° C | 57% | 1020.1 hPa | 0 mm | 0 m/s | 269 W/m² | - |
| 1778245023 | 13.89° C | 55% | 1020.1 hPa | 0 mm | 0.45 m/s, 34° | 267 W/m² | - |
| 1778244960 | 13.89° C | 55% | 1020.2 hPa | 0 mm | 0.45 m/s, 110° | 259 W/m² | - |
| 1778244900 | 13.89° C | 54% | 1020 hPa | 0 mm | 0.45 m/s, 322° | 253 W/m² | - |
| 1778244840 | 13.89° C | 55% | 1019.9 hPa | 0 mm | 0.45 m/s, 58° | 251 W/m² | - |
| 1778244780 | 13.89° C | 57% | 1019.9 hPa | 0 mm | 0.45 m/s, 54° | 252 W/m² | - |
| 1778244720 | 13.89° C | 54% | 1020 hPa | 0 mm | 0.89 m/s, 24° | 258 W/m² | - |
| 1778244660 | 13.89° C | 57% | 1019.9 hPa | 0 mm | 0.89 m/s, 123° | 262 W/m² | - |
| 1778244602 | 13.89° C | 56% | 1019.9 hPa | 0 mm | 0.45 m/s, 16° | 263 W/m² | - |
* Rain latest hour (hover to see other rain measurements)
** Current wind speed in m/s (hover to see current wind gust speed)